Time,TemperatureF,DewpointF,PressureIn,WindDirection,WindDirectionDegrees,WindSpeedMPH,WindSpeedGustMPH,Humidity,HourlyPrecipIn,Conditions,Clouds,dailyrainin,SolarRadiationWatts/m^2,SoftwareType,DateUTC
2013-01-28 00:21:00,13.0,11.0,-100.00,NE,37,2.0,6.0,92,0.00,,,0.05,0.000000,,2013-01-28 07:21:00,
2013-01-28 00:41:00,13.0,11.0,-100.00,NE,37,2.0,6.0,92,0.00,,,0.05,0.000000,,2013-01-28 07:41:00,
2013-01-28 00:51:00,13.0,11.0,-100.00,NE,37,2.0,6.0,92,0.00,,,0.05,0.000000,,2013-01-28 07:51:00,
2013-01-28 01:21:00,15.0,13.0,-100.00,WNW,288,1.0,6.0,91,0.00,,,0.04,0.000000,,2013-01-28 08:21:00,
2013-01-28 01:32:00,15.0,13.0,-100.00,WNW,288,1.0,6.0,91,0.00,,,0.04,0.000000,,2013-01-28 08:32:00,
2013-01-28 01:42:00,15.0,13.0,-100.00,WNW,288,1.0,6.0,91,0.00,,,0.04,0.000000,,2013-01-28 08:42:00,
2013-01-28 01:52:00,15.0,13.0,-100.00,WNW,288,1.0,6.0,91,0.00,,,0.04,0.000000,,2013-01-28 08:52:00,
2013-01-28 02:21:00,13.0,10.0,-100.00,NNW,344,1.0,5.0,89,0.00,,,0.04,0.000000,,2013-01-28 09:21:00,
2013-01-28 02:32:00,13.0,10.0,-100.00,NNW,344,1.0,5.0,89,0.00,,,0.04,0.000000,,2013-01-28 09:32:00,
2013-01-28 02:41:00,13.0,10.0,-100.00,NNW,344,1.0,5.0,89,0.00,,,0.04,0.000000,,2013-01-28 09:41:00,
2013-01-28 02:51:00,13.0,10.0,-100.00,NNW,344,1.0,5.0,89,0.00,,,0.04,0.000000,,2013-01-28 09:51:00,
2013-01-28 04:22:00,15.0,12.0,-100.00,South,190,3.0,7.0,86,-99.99,,,0.04,0.000000,,2013-01-28 11:22:00,
2013-01-28 04:32:00,15.0,12.0,-100.00,South,190,3.0,7.0,86,-99.99,,,0.04,0.000000,,2013-01-28 11:32:00,
2013-01-28 04:42:00,15.0,12.0,-100.00,South,190,3.0,7.0,86,-99.99,,,0.04,0.000000,,2013-01-28 11:42:00,
2013-01-28 04:52:00,15.0,12.0,-100.00,South,190,3.0,7.0,86,-99.99,,,0.04,0.000000,,2013-01-28 11:52:00,
2013-01-28 05:23:00,16.0,13.0,-100.00,SSW,212,13.0,18.0,86,0.00,,,0.04,1.000000,,2013-01-28 12:23:00,
2013-01-28 05:32:00,16.0,13.0,-100.00,SSW,212,13.0,18.0,86,0.00,,,0.04,1.000000,,2013-01-28 12:32:00,
2013-01-28 05:42:00,16.0,13.0,-100.00,SSW,212,13.0,18.0,86,0.00,,,0.04,1.000000,,2013-01-28 12:42:00,
2013-01-28 05:52:00,16.0,13.0,-100.00,SSW,212,13.0,18.0,86,0.00,,,0.04,1.000000,,2013-01-28 12:52:00,
2013-01-28 06:22:00,15.0,12.0,-100.00,SSW,213,12.0,20.0,86,0.00,,,0.04,0.000000,,2013-01-28 13:22:00,
2013-01-28 06:33:00,15.0,12.0,-100.00,SSW,213,12.0,20.0,86,0.00,,,0.04,0.000000,,2013-01-28 13:33:00,
2013-01-28 06:42:00,15.0,12.0,-100.00,SSW,213,12.0,20.0,86,0.00,,,0.04,0.000000,,2013-01-28 13:42:00,
2013-01-28 06:52:00,15.0,12.0,-100.00,SSW,213,12.0,20.0,86,0.00,,,0.04,0.000000,,2013-01-28 13:52:00,
2013-01-28 07:22:00,15.0,11.0,-100.00,SSW,209,13.0,20.0,84,0.00,,,0.04,0.000000,,2013-01-28 14:22:00,
2013-01-28 07:32:00,15.0,11.0,-100.00,SSW,209,13.0,20.0,84,0.00,,,0.04,0.000000,,2013-01-28 14:32:00,
2013-01-28 07:42:00,15.0,11.0,-100.00,SSW,209,13.0,20.0,84,0.00,,,0.04,0.000000,,2013-01-28 14:42:00,
2013-01-28 07:52:00,15.0,11.0,-100.00,SSW,209,13.0,20.0,84,0.00,,,0.04,0.000000,,2013-01-28 14:52:00,
2013-01-28 08:23:00,13.0,9.0,-100.00,SW,217,3.0,17.0,84,0.00,,,0.04,2.000000,,2013-01-28 15:23:00,
2013-01-28 08:33:00,13.0,9.0,-100.00,SW,217,3.0,17.0,84,0.00,,,0.04,2.000000,,2013-01-28 15:33:00,
2013-01-28 08:42:00,13.0,9.0,-100.00,SW,217,3.0,17.0,84,0.00,,,0.04,2.000000,,2013-01-28 15:42:00,
2013-01-28 08:52:00,13.0,9.0,-100.00,SW,217,3.0,17.0,84,0.00,,,0.04,2.000000,,2013-01-28 15:52:00,
2013-01-28 09:22:00,17.0,12.0,-100.00,SW,215,10.0,15.0,79,0.00,,,0.04,59.000000,,2013-01-28 16:22:00,
2013-01-28 09:32:00,17.0,12.0,-100.00,SW,215,10.0,15.0,79,0.00,,,0.04,59.000000,,2013-01-28 16:32:00,
2013-01-28 09:42:00,17.0,12.0,-100.00,SW,215,10.0,15.0,79,0.00,,,0.04,59.000000,,2013-01-28 16:42:00,
2013-01-28 09:52:00,17.0,12.0,-100.00,SW,215,10.0,15.0,79,0.00,,,0.04,59.000000,,2013-01-28 16:52:00,
2013-01-28 10:22:00,18.0,12.0,-100.00,SSW,200,11.0,16.0,76,0.00,,,0.04,220.000000,,2013-01-28 17:22:00,
2013-01-28 10:32:00,18.0,12.0,-100.00,SSW,200,11.0,16.0,76,0.00,,,0.04,220.000000,,2013-01-28 17:32:00,
2013-01-28 10:42:00,18.0,12.0,-100.00,SSW,200,11.0,16.0,76,0.00,,,0.04,220.000000,,2013-01-28 17:42:00,
2013-01-28 10:52:00,18.0,12.0,-100.00,SSW,200,11.0,16.0,76,0.00,,,0.04,220.000000,,2013-01-28 17:52:00,
2013-01-28 11:23:00,19.0,12.0,-100.00,South,189,16.0,20.0,73,0.00,,,0.03,352.000000,,2013-01-28 18:23:00,
2013-01-28 11:33:00,19.0,12.0,-100.00,South,189,16.0,20.0,73,0.00,,,0.03,352.000000,,2013-01-28 18:33:00,
2013-01-28 11:42:00,19.0,12.0,-100.00,South,189,16.0,20.0,73,0.00,,,0.03,352.000000,,2013-01-28 18:42:00,
2013-01-28 11:52:00,19.0,12.0,-100.00,South,189,16.0,20.0,73,0.00,,,0.03,352.000000,,2013-01-28 18:52:00,
2013-01-28 12:22:00,19.0,12.0,-100.00,South,188,13.0,18.0,74,0.00,,,0.01,294.000000,,2013-01-28 19:22:00,
2013-01-28 12:32:00,19.0,12.0,-100.00,South,188,13.0,18.0,74,0.00,,,0.01,294.000000,,2013-01-28 19:32:00,
2013-01-28 12:42:00,19.0,12.0,-100.00,South,188,13.0,18.0,74,0.00,,,0.01,294.000000,,2013-01-28 19:42:00,
2013-01-28 12:52:00,19.0,12.0,-100.00,South,188,13.0,18.0,74,0.00,,,0.01,294.000000,,2013-01-28 19:52:00,
2013-01-28 13:22:00,21.0,12.0,-100.00,South,175,14.0,19.0,67,0.00,,,0.01,402.000000,,2013-01-28 20:22:00,
2013-01-28 13:33:00,21.0,12.0,-100.00,South,175,14.0,19.0,67,0.00,,,0.01,402.000000,,2013-01-28 20:33:00,
2013-01-28 13:42:00,21.0,12.0,-100.00,South,175,14.0,19.0,67,0.00,,,0.01,402.000000,,2013-01-28 20:42:00,
2013-01-28 13:52:00,21.0,12.0,-100.00,South,175,14.0,19.0,67,0.00,,,0.01,402.000000,,2013-01-28 20:52:00,
2013-01-28 14:22:00,21.0,10.0,-100.00,South,184,13.0,17.0,62,0.00,,,0.00,410.000000,,2013-01-28 21:22:00,
2013-01-28 14:33:00,21.0,10.0,-100.00,South,184,13.0,17.0,62,0.00,,,0.00,410.000000,,2013-01-28 21:33:00,
2013-01-28 14:42:00,21.0,10.0,-100.00,South,184,13.0,17.0,62,0.00,,,0.00,410.000000,,2013-01-28 21:42:00,
2013-01-28 14:52:00,21.0,10.0,-100.00,South,184,13.0,17.0,62,0.00,,,0.00,410.000000,,2013-01-28 21:52:00,
2013-01-28 15:22:00,21.0,9.0,-100.00,South,176,7.0,24.0,58,0.00,,,0.00,291.000000,,2013-01-28 22:22:00,
2013-01-28 15:32:00,21.0,9.0,-100.00,South,176,7.0,24.0,58,0.00,,,0.00,291.000000,,2013-01-28 22:32:00,
2013-01-28 15:42:00,21.0,9.0,-100.00,South,176,7.0,24.0,58,0.00,,,0.00,291.000000,,2013-01-28 22:42:00,
2013-01-28 15:52:00,21.0,9.0,-100.00,South,176,7.0,24.0,58,0.00,,,0.00,291.000000,,2013-01-28 22:52:00,
2013-01-28 16:22:00,19.0,6.0,-100.00,SW,218,8.0,19.0,56,0.00,,,0.00,163.000000,,2013-01-28 23:22:00,
2013-01-28 16:32:00,19.0,6.0,-100.00,SW,218,8.0,19.0,56,0.00,,,0.00,163.000000,,2013-01-28 23:32:00,
2013-01-28 16:42:00,19.0,6.0,-100.00,SW,218,8.0,19.0,56,0.00,,,0.00,163.000000,,2013-01-28 23:42:00,
2013-01-28 16:52:00,19.0,6.0,-100.00,SW,218,8.0,19.0,56,0.00,,,0.00,163.000000,,2013-01-28 23:52:00,
2013-01-28 17:22:00,17.0,4.0,-100.00,SW,223,6.0,14.0,57,0.00,,,0.00,88.000000,,2013-01-29 00:22:00,
2013-01-28 17:32:00,17.0,4.0,-100.00,SW,223,6.0,14.0,57,0.00,,,0.00,88.000000,,2013-01-29 00:32:00,
2013-01-28 17:42:00,17.0,4.0,-100.00,SW,223,6.0,14.0,57,0.00,,,0.00,88.000000,,2013-01-29 00:42:00,
2013-01-28 17:51:00,17.0,4.0,-100.00,SW,223,6.0,14.0,57,0.00,,,0.00,88.000000,,2013-01-29 00:51:00,
2013-01-28 18:22:00,15.0,4.0,-100.00,West,278,5.0,16.0,61,0.00,,,0.00,13.000000,,2013-01-29 01:22:00,
2013-01-28 18:32:00,15.0,4.0,-100.00,West,278,5.0,16.0,61,0.00,,,0.00,13.000000,,2013-01-29 01:32:00,
2013-01-28 18:42:00,15.0,4.0,-100.00,West,278,5.0,16.0,61,0.00,,,0.00,13.000000,,2013-01-29 01:42:00,
2013-01-28 18:52:00,15.0,4.0,-100.00,West,278,5.0,16.0,61,0.00,,,0.00,13.000000,,2013-01-29 01:52:00,
2013-01-28 19:21:00,12.0,6.0,-100.00,NW,311,2.0,8.0,76,0.00,,,0.00,1.000000,,2013-01-29 02:21:00,
2013-01-28 19:32:00,12.0,6.0,-100.00,NW,311,2.0,8.0,76,0.00,,,0.00,1.000000,,2013-01-29 02:32:00,
2013-01-28 19:41:00,12.0,6.0,-100.00,NW,311,2.0,8.0,76,0.00,,,0.00,1.000000,,2013-01-29 02:41:00,
2013-01-28 19:52:00,12.0,6.0,-100.00,NW,311,2.0,8.0,76,0.00,,,0.00,1.000000,,2013-01-29 02:52:00,
2013-01-28 20:21:00,9.0,5.0,-100.00,NW,309,2.0,6.0,84,0.00,,,0.00,0.000000,,2013-01-29 03:21:00,
2013-01-28 20:32:00,9.0,5.0,-100.00,NW,309,2.0,6.0,84,0.00,,,0.00,0.000000,,2013-01-29 03:32:00,
2013-01-28 20:42:00,9.0,5.0,-100.00,NW,309,2.0,6.0,84,0.00,,,0.00,0.000000,,2013-01-29 03:42:00,
2013-01-28 20:52:00,9.0,5.0,-100.00,NW,309,2.0,6.0,84,0.00,,,0.00,0.000000,,2013-01-29 03:52:00,
2013-01-28 21:21:00,8.0,1.0,-100.00,SSW,208,5.0,9.0,72,0.00,,,0.00,0.000000,,2013-01-29 04:21:00,
2013-01-28 21:32:00,8.0,1.0,-100.00,SSW,208,5.0,9.0,72,0.00,,,0.00,0.000000,,2013-01-29 04:32:00,
2013-01-28 21:41:00,8.0,1.0,-100.00,SSW,208,5.0,9.0,72,0.00,,,0.00,0.000000,,2013-01-29 04:41:00,
2013-01-28 21:51:00,8.0,1.0,-100.00,SSW,208,5.0,9.0,72,0.00,,,0.00,0.000000,,2013-01-29 04:51:00,
2013-01-28 22:21:00,6.0,3.0,-100.00,NW,325,1.0,6.0,86,0.00,,,0.00,0.000000,,2013-01-29 05:21:00,
2013-01-28 22:32:00,6.0,3.0,-100.00,NW,325,1.0,6.0,86,0.00,,,0.00,0.000000,,2013-01-29 05:32:00,
2013-01-28 22:42:00,6.0,3.0,-100.00,NW,325,1.0,6.0,86,0.00,,,0.00,0.000000,,2013-01-29 05:42:00,
2013-01-28 22:52:00,6.0,3.0,-100.00,NW,325,1.0,6.0,86,0.00,,,0.00,0.000000,,2013-01-29 05:52:00,
2013-01-28 23:21:00,7.0,3.0,-100.00,NNE,25,2.0,5.0,85,0.00,,,0.00,0.000000,,2013-01-29 06:21:00,
2013-01-28 23:31:00,7.0,3.0,-100.00,NNE,25,2.0,5.0,85,0.00,,,0.00,0.000000,,2013-01-29 06:31:00,
2013-01-28 23:41:00,7.0,3.0,-100.00,NNE,25,2.0,5.0,85,0.00,,,0.00,0.000000,,2013-01-29 06:41:00,
2013-01-28 23:52:00,7.0,3.0,-100.00,NNE,25,2.0,5.0,85,0.00,,,0.00,0.000000,,2013-01-29 06:52:00,